Flag for Japan

Past Weather in 35°20'40.0"N, 136°55'03.8"E, Japan — Yesterday and Last 2 Weeks

Now
72 °F

Partly sunny.


Feels Like: 76 °F
Forecast: 74 / 66 °F
Wind: 3 mph from West

Location: Nagoya Airport

Current Time: May 30, 2020 at 10:10:26 am

Latest Report: May 30, 2020 at 9:30 am


Visibility: N/A

Pressure: 30.12 "Hg

Humidity: 61%

Dew Point: 57 °F

Location of 35°20'40.0"N, 136°55'03.8"ELocation

Past Weather in 35°20'40.0"N, 136°55'03.8"E — Graph

°F

35°20'40.0"N, 136°55'03.8"E Temperature Yesterday

Maximum temperature yesterday: 75 °F (at 11:00 am)
Minimum temperature yesterday: 61 °F (at 3:30 am)
Average temperature yesterday: 70 °F

High & Low Weather Summary for the Past Weeks

 TemperatureHumidityPressure
High79 °F (May 24, 1:30 pm)94% (May 16, 6:00 am)30.12 "Hg (May 16, 6:00 am)
Low59 °F (May 16, 6:30 am)36% (May 28, 2:00 pm)29.39 "Hg (May 19, 3:00 pm)
Average69 °F72%29.80 "Hg
* Reported May 15 9:00 am — May 30 9:00 am, 35°20'40.0"N, 136°55'03.8"E. Weather by CustomWeather, © 2020

Note: Actual official high and low records may vary slightly from our data, if they occured in-between our weather recording intervals... More about our weather records

35°20'40.0"N, 136°55'03.8"E Weather History for the Previous 24 Hours

Scroll right to see more
 ConditionsComfort  
Time TempWeatherWind HumidityBarometerVisibility
9:00 am
Sat, May 30
72 °FPartly sunny.5 mph61%30.12 "HgN/A
8:30 am70 °FPartly sunny.2 mph64%30.12 "HgN/A
8:00 am70 °FPartly sunny.1 mph64%30.12 "HgN/A
7:30 am70 °FPartly sunny.2 mph60%30.12 "HgN/A
7:00 am68 °FPartly sunny.6 mph64%30.09 "HgN/A
6:30 am66 °FPartly sunny.5 mph68%30.09 "HgN/A
6:00 am64 °FSunny.7 mph73%30.09 "Hg10 mi
5:30 am64 °FScattered clouds.8 mph68%30.09 "HgN/A
5:00 am61 °FScattered clouds.8 mph77%30.07 "HgN/A
4:00 am63 °FPassing clouds.8 mph73%30.04 "HgN/A
3:30 am63 °FPassing clouds.9 mph73%30.04 "HgN/A
3:00 am63 °FPassing clouds.8 mph73%30.04 "HgN/A
2:30 am66 °FPassing clouds.3 mph78%30.04 "HgN/A
2:00 am66 °FPassing clouds.5 mph73%30.04 "HgN/A
1:30 am68 °FPassing clouds.5 mph73%30.01 "HgN/A
1:00 am68 °FPassing clouds.5 mph73%30.01 "HgN/A
12:30 am68 °FPassing clouds.6 mph73%30.01 "HgN/A
12:00 am68 °FPassing clouds.5 mph69%30.01 "HgN/A
11:30 pm
Fri, May 29
68 °FPassing clouds.6 mph60%30.01 "HgN/A
11:00 pm68 °FPassing clouds.7 mph60%30.01 "HgN/A
10:30 pm68 °FPassing clouds.7 mph60%30.01 "HgN/A
10:00 pm70 °FPassing clouds.9 mph50%29.98 "HgN/A
9:30 pm70 °FPassing clouds.12 mph53%29.98 "HgN/A
9:00 pm72 °FPassing clouds.12 mph47%29.98 "HgN/A
8:30 pm72 °FPassing clouds.13 mph50%29.95 "HgN/A
8:00 pm72 °FPassing clouds.12 mph50%29.95 "HgN/A
7:30 pm72 °FPassing clouds.12 mph53%29.95 "HgN/A
7:00 pm73 °FPassing clouds.9 mph41%29.92 "HgN/A
6:30 pm73 °FPassing clouds.9 mph44%29.92 "HgN/A
6:00 pm75 °FPassing clouds.10 mph44%29.92 "HgN/A
5:30 pm75 °FPassing clouds.12 mph44%29.89 "HgN/A
5:00 pm75 °FPassing clouds.14 mph47%29.89 "HgN/A
4:30 pm73 °FPassing clouds.15 mph61%29.89 "HgN/A
4:00 pm73 °FPassing clouds.16 mph61%29.89 "HgN/A
3:30 pm75 °FPassing clouds.12 mph57%29.89 "HgN/A
3:00 pm75 °FPassing clouds.13 mph57%29.89 "HgN/A
2:30 pm75 °FPassing clouds.12 mph54%29.89 "HgN/A
2:00 pm75 °FPassing clouds.9 mph54%29.89 "HgN/A
1:30 pm75 °FPassing clouds.5 mph39%29.89 "HgN/A
1:00 pm75 °FPassing clouds.7 mph47%29.89 "HgN/A
12:30 pm75 °FPassing clouds.6 mph39%29.89 "HgN/A
12:00 pm75 °FPassing clouds.5 mph41%29.89 "HgN/A
11:30 am73 °FPassing clouds.5 mph41%29.92 "HgN/A
11:00 am75 °FPassing clouds.6 mph44%29.92 "HgN/A
10:30 am73 °FPassing clouds.6 mph47%29.92 "HgN/A
10:00 am70 °FPassing clouds.5 mph53%29.92 "HgN/A
Weather by CustomWeather, © 2020

See weather overview

Advertising